Regional Weather Roundup
Issued by NWS Northern Indiana

Home | Current Version | Previous Version | Text Only | Print | Product List | Glossary Off
Versions: 1 2 3 4 5 6 7 8 9 10 11 12 13 14 15 16 17 18 19 20 21 22 23 24 25 26 27 28 29 30 31 32 33 34 35 36 37 38 39 40 41 42 43 44 45 46 47 48 49 50

000
ASUS43 KIWX 061100
RWRIWX

KIWX WEATHER ROUNDUP
NATIONAL WEATHER SERVICE NORTHERN INDIANA
700 AM EDT MON JUL 06 2015

NOTE: "FAIR" INDICATES FEW OR NO CLOUDS BELOW 12,000 FEET WITH NO
SIGNIFICANT WEATHER AND/OR OBSTRUCTIONS TO VISIBILITY.

* THESE STATIONS ARE NOT UNDER NWS QUALITY CONTROL. THEY ALSO MAY NOT
  REPORT WEATHER SUCH AS PRECIPITATION OR FOG.

INZ001>027-061200-
NORTHERN INDIANA

CITY           SKY/WX    TMP DP  RH WIND       PRES   REMARKS
GARY*          CLEAR    N/A N/A N/A S5        30.00F FOG
SOUTH BEND     CLEAR     66  60  81 S6        30.03F
ELKHART*       CLEAR     61  59  94 CALM      30.04  FOG
GOSHEN         CLEAR     61  59  93 SE6       30.05R FOG
MONTICELLO*    CLEAR     64  64  99 S3        30.04S FOG
ANGOLA*          N/A     59  57  94 CALM      30.07S
FORT WAYNE     CLEAR     61  58  90 CALM      30.08S FOG
PERU/GRISSOM   CLEAR     65  62  91 S3        30.06R

$$
INZ028>050-061200-
CENTRAL INDIANA

CITY           SKY/WX    TMP DP  RH WIND       PRES   REMARKS
LAFAYETTE      CLEAR     63  62  97 CALM      30.05S FOG
KOKOMO*        CLEAR     63  59  88 SE3       30.07R
MUNCIE*        CLEAR     63  61  93 S5        30.09R FOG
INDIANAPOLIS   CLEAR     64  62  93 S5        30.07R FOG

$$
MIZ043>046-050>051-056>058-064>065-071>073-077>080-061200-
SOUTHWEST LOWER MICHIGAN

CITY           SKY/WX    TMP DP  RH WIND       PRES   REMARKS
BATTLE CREEK   CLEAR     63  59  87 S5        30.07R
BENTON HARBOR  CLEAR     64  61  90 SE5       30.01F FOG
COLDWATER*     CLEAR     60  59  96 CALM      30.08R FOG
HILLSDALE*     CLEAR     60  60 100 CALM      30.08R FOG
HOLLAND        CLEAR     63  60  90 S6        30.01F FOG
GRAND RAPIDS   PTCLDY    61  59  93 S9        30.02F FOG
KALAMAZOO      CLEAR     64  59  83 SE5       30.06S HAZE
STURGIS*       CLEAR     61  59  94 CALM      30.06R FOG
THREE RIVERS*  FAIR      60  59  96 CALM      30.06R FOG

$$
OHZ001>008-015>018-024>025-061200-
NORTHWEST OHIO

CITY           SKY/WX    TMP DP  RH WIND       PRES   REMARKS
DEFIANCE       CLEAR     60  58  92 CALM      30.08S FOG
FINDLAY        CLEAR     60  58  92 CALM      30.08S FOG
TOLEDO EXPRESS CLEAR     56  55  97 CALM      30.06F FOG
TOLEDO METCALF CLEAR     61  58  90 SE3       30.08F FOG
LIMA           CLEAR     59  58  96 CALM      30.09S FOG

$$
AND FOR LAKE MICHIGAN COASTAL AND OPEN LAKE BUOY OBSERVATIONS

STATION/POSITION TEMP    WIND        PRES    VSBY  WAVE
                 AIR SEA DIR/SP/G                  HT/PER
                 (F)     (DEG/KT/KT) (MB)    (MI)  (FT/S)
CALUMET HARBOR    69     170/  7/  9   N/A
MICHIGAN CITY     69     150/ 10/ 14   N/A
BURNS HARBOR      69     170/  8/ 13 1016.6F
SAINT JOSEPH      68     130/  3/  7 1016.6F
4 MI NW BRIDGMAN  67 65  210/ 10/ 10   N/A           1
MICHIGAN CITY     67 66  190/  8/ 10   N/A           1

$$
&&



USA.gov is the U.S. government's official web portal to all federal, state and local government web resources and services.